• In Uzbekistan
  • List of Countries
  • For 7 days
  • Water Temperature
  • Satellite Maps
  • Weather Map
  • Weather Widgets
  • user-avatar
    Login

    Hourly Weather Vougeot

    Today, 23 October, Tuesday

    Time Temperature Precipitation Wind Pressure Humidity
    00:00 +7°C° 0 mm 4 mps 744 mmHg 87%
    01:00 +7°C° 0 mm 3 mps 744 mmHg 89%
    02:00 +7°C° 0 mm 3 mps 744 mmHg 92%
    03:00 +6°C° 0 mm 2 mps 744 mmHg 94%
    04:00 +6°C° 0 mm 2 mps 744 mmHg 94%
    05:00 +6°C° 0 mm 2 mps 744 mmHg 95%
    06:00 +5°C° 0 mm 1 mps 744 mmHg 96%
    07:00 +6°C° 0 mm 2 mps 744 mmHg 87%
    08:00 +8°C° 0 mm 2 mps 744 mmHg 79%
    09:00 +10°C° 0 mm 2 mps 745 mmHg 71%
    10:00 +13°C° 0 mm 2 mps 744 mmHg 63%
    11:00 +14°C° 0 mm 2 mps 744 mmHg 55%
    12:00 +16°C° 0 mm 2 mps 744 mmHg 46%
    13:00 +16°C° 0 mm 2 mps 744 mmHg 47%
    14:00 +16°C° 0 mm 2 mps 743 mmHg 47%
    15:00 +16°C° 0 mm 2 mps 743 mmHg 47%
    16:00 +14°C° 0 mm 2 mps 743 mmHg 54%
    17:00 +12°C° 0 mm 2 mps 743 mmHg 60%
    18:00 +9°C° 0 mm 2 mps 743 mmHg 67%
    19:00 +9°C° 0 mm 1 mps 743 mmHg 69%
    20:00 +9°C° 0 mm 1 mps 744 mmHg 70%
    21:00 +8°C° 0 mm 1 mps 744 mmHg 72%
    22:00 +8°C° 0 mm 1 mps 744 mmHg 74%
    23:00 +8°C° 0 mm 1 mps 744 mmHg 76%

    Tomorrow, 24 October, Wednesday

    Time Temperature Precipitation Wind Pressure Humidity
    00:00 +8°C° 0 mm 1 mps 743 mmHg 77%
    01:00 +8°C° 0 mm 1 mps 743 mmHg 80%
    02:00 +8°C° 0 mm 1 mps 743 mmHg 83%
    03:00 +7°C° 0 mm 1 mps 742 mmHg 85%
    04:00 +7°C° 0 mm 1 mps 742 mmHg 87%
    05:00 +7°C° 0 mm 1 mps 742 mmHg 88%
    06:00 +7°C° 0 mm 1 mps 742 mmHg 90%
    07:00 +9°C° 0 mm 1 mps 742 mmHg 83%
    08:00 +11°C° 0 mm 1 mps 743 mmHg 76%
    09:00 +13°C° 0 mm 2 mps 743 mmHg 70%
    10:00 +14°C° 0 mm 2 mps 743 mmHg 68%
    11:00 +16°C° 0 mm 2 mps 742 mmHg 66%
    12:00 +17°C° 0 mm 3 mps 742 mmHg 63%
    13:00 +17°C° 0 mm 3 mps 742 mmHg 66%
    14:00 +16°C° 0 mm 3 mps 742 mmHg 69%
    15:00 +16°C° 0 mm 3 mps 741 mmHg 72%
    16:00 +14°C° 0 mm 3 mps 741 mmHg 79%
    17:00 +13°C° 0 mm 2 mps 741 mmHg 86%
    18:00 +12°C° 0 mm 2 mps 741 mmHg 93%
    19:00 +10°C° 0 mm 2 mps 741 mmHg 94%
    20:00 +10°C° 0 mm 2 mps 741 mmHg 96%
    21:00 +9°C° 0 mm 2 mps 741 mmHg 97%
    22:00 +9°C° 0 mm 2 mps 740 mmHg 97%
    23:00 +9°C° 0 mm 2 mps 740 mmHg 97%

    Day after tomorrow, 25 October, Thursday

    Time Temperature Precipitation Wind Pressure Humidity
    00:00 +8°C° 0 mm 2 mps 740 mmHg 97%
    01:00 +9°C° 0 mm 2 mps 739 mmHg 97%
    02:00 +9°C° 0 mm 2 mps 739 mmHg 97%
    03:00 +9°C° 0 mm 2 mps 739 mmHg 97%
    04:00 +9°C° 0 mm 2 mps 739 mmHg 96%
    05:00 +9°C° 0 mm 2 mps 738 mmHg 96%
    06:00 +9°C° 0 mm 2 mps 738 mmHg 96%
    07:00 +10°C° 0 mm 2 mps 738 mmHg 91%
    08:00 +12°C° 0 mm 2 mps 738 mmHg 86%
    09:00 +14°C° 0 mm 2 mps 738 mmHg 81%
    10:00 +15°C° 0 mm 2 mps 738 mmHg 75%
    11:00 +16°C° 0 mm 2 mps 738 mmHg 69%
    12:00 +18°C° 0 mm 2 mps 737 mmHg 62%
    13:00 +18°C° 0 mm 2 mps 737 mmHg 63%
    14:00 +17°C° 0 mm 2 mps 736 mmHg 64%
    15:00 +17°C° 0 mm 2 mps 736 mmHg 65%
    16:00 +15°C° 0 mm 2 mps 736 mmHg 74%
    17:00 +13°C° 0 mm 2 mps 736 mmHg 84%
    18:00 +10°C° 0 mm 2 mps 736 mmHg 93%
    19:00 +9°C° 0 mm 2 mps 735 mmHg 94%
    20:00 +9°C° 0 mm 1 mps 735 mmHg 95%
    21:00 +8°C° 0 mm 1 mps 735 mmHg 95%
    22:00 +8°C° 0 mm 1 mps 735 mmHg 95%
    23:00 +8°C° 0 mm 1 mps 734 mmHg 95%

    26 October, Friday

    Time Temperature Precipitation Wind Pressure Humidity
    00:00 +7°C° 0 mm 1 mps 734 mmHg 95%
    01:00 +6°C° 0 mm 0 mps 734 mmHg 95%
    02:00 +6°C° 0 mm 0 mps 733 mmHg 95%
    03:00 +5°C° 0 mm 0 mps 733 mmHg 95%
    04:00 +5°C° 0 mm 0 mps 733 mmHg 95%
    05:00 +5°C° 0 mm 0 mps 733 mmHg 95%
    06:00 +6°C° 0 mm 1 mps 732 mmHg 95%
    07:00 +8°C° 0 mm 1 mps 733 mmHg 89%
    08:00 +10°C° 0 mm 1 mps 733 mmHg 84%
    09:00 +11°C° 0 mm 1 mps 733 mmHg 78%
    10:00 +13°C° 0 mm 1 mps 732 mmHg 71%
    11:00 +14°C° 0 mm 2 mps 732 mmHg 64%
    12:00 +15°C° 0 mm 2 mps 732 mmHg 56%
    13:00 +15°C° 0 mm 2 mps 731 mmHg 55%
    14:00 +16°C° 0 mm 2 mps 731 mmHg 55%
    15:00 +16°C° 0 mm 2 mps 731 mmHg 54%
    16:00 +14°C° 0 mm 2 mps 731 mmHg 60%
    17:00 +13°C° 0 mm 2 mps 731 mmHg 67%
    18:00 +10°C° 0 mm 2 mps 732 mmHg 73%
    19:00 +10°C° 0 mm 2 mps 732 mmHg 76%
    20:00 +9°C° 0 mm 2 mps 732 mmHg 79%
    21:00 +9°C° 0 mm 2 mps 732 mmHg 81%
    22:00 +8°C° 0 mm 2 mps 732 mmHg 83%
    23:00 +8°C° 0 mm 2 mps 732 mmHg 84%

    27 October, Saturday

    Time Temperature Precipitation Wind Pressure Humidity
    00:00 +7°C° 0 mm 2 mps 732 mmHg 86%
    01:00 +7°C° 0.2 mm 2 mps 732 mmHg 86%
    02:00 +7°C° 0.2 mm 2 mps 732 mmHg 86%
    03:00 +6°C° 0.2 mm 2 mps 731 mmHg 87%
    04:00 +6°C° 0.3 mm 2 mps 731 mmHg 87%
    05:00 +5°C° 0.3 mm 2 mps 731 mmHg 87%
    06:00 +5°C° 0.3 mm 2 mps 731 mmHg 86%
    07:00 +5°C° 0.1 mm 2 mps 731 mmHg 83%
    08:00 +6°C° 0.1 mm 2 mps 731 mmHg 80%
    09:00 +6°C° 0.1 mm 2 mps 731 mmHg 77%
    10:00 +6°C° 0 mm 2 mps 731 mmHg 72%
    11:00 +7°C° 0 mm 3 mps 731 mmHg 67%
    12:00 +8°C° 0 mm 3 mps 730 mmHg 62%
    13:00 +8°C° 0.1 mm 2 mps 730 mmHg 61%
    14:00 +8°C° 0.1 mm 2 mps 730 mmHg 61%
    15:00 +7°C° 0.1 mm 2 mps 729 mmHg 60%
    16:00 +6°C° 0.1 mm 2 mps 729 mmHg 66%
    17:00 +5°C° 0.1 mm 2 mps 729 mmHg 73%
    18:00 +5°C° 0.1 mm 1 mps 729 mmHg 79%
    19:00 +5°C° 0.1 mm 1 mps 729 mmHg 82%
    20:00 +4°C° 0.1 mm 1 mps 729 mmHg 86%
    21:00 +4°C° 0.1 mm 1 mps 729 mmHg 89%
    22:00 +3°C° 0.1 mm 2 mps 728 mmHg 90%
    23:00 +2°C° 0.1 mm 2 mps 728 mmHg 90%

    28 October, Sunday

    Time Temperature Precipitation Wind Pressure Humidity
    00:00 +2°C° 0.1 mm 2 mps 728 mmHg 91%
    01:00 +2°C° 0.1 mm 2 mps 728 mmHg 90%
    02:00 +2°C° 0.1 mm 2 mps 727 mmHg 89%
    03:00 +2°C° 0.1 mm 2 mps 727 mmHg 88%
    04:00 +1°C° 0.2 mm 3 mps 727 mmHg 88%
    05:00 +1°C° 0.2 mm 3 mps 727 mmHg 88%
    06:00 0°C° 0.2 mm 4 mps 727 mmHg 88%
    07:00 0°C° 0.5 mm 4 mps 727 mmHg 87%
    08:00 +1°C° 0.5 mm 5 mps 727 mmHg 86%
    09:00 +1°C° 0.5 mm 5 mps 727 mmHg 86%
    10:00 +2°C° 0.5 mm 6 mps 727 mmHg 85%
    11:00 +2°C° 0.5 mm 6 mps 727 mmHg 84%
    12:00 +3°C° 0.5 mm 6 mps 727 mmHg 83%
    13:00 +3°C° 0.4 mm 6 mps 727 mmHg 83%
    14:00 +3°C° 0.4 mm 6 mps 727 mmHg 83%
    15:00 +3°C° 0.4 mm 6 mps 727 mmHg 83%
    16:00 +2°C° 0.3 mm 6 mps 727 mmHg 84%
    17:00 +2°C° 0.3 mm 6 mps 727 mmHg 85%
    18:00 +2°C° 0.3 mm 6 mps 727 mmHg 85%
    19:00 +1°C° 0.2 mm 6 mps 727 mmHg 85%
    20:00 +1°C° 0.2 mm 6 mps 727 mmHg 85%
    21:00 +1°C° 0.2 mm 6 mps 727 mmHg 85%
    22:00 +1°C° 0.2 mm 6 mps 727 mmHg 86%
    23:00 +1°C° 0.2 mm 6 mps 726 mmHg 87%

    29 October, Monday

    Time Temperature Precipitation Wind Pressure Humidity
    00:00 +1°C° 0.2 mm 6 mps 726 mmHg 87%
    01:00 -1°C° 0.3 mm 6 mps 726 mmHg 87%
    02:00 -1°C° 0.3 mm 6 mps 726 mmHg 88%
    03:00 -1°C° 0.3 mm 6 mps 726 mmHg 88%
    04:00 -1°C° 0.2 mm 6 mps 726 mmHg 88%
    05:00 -1°C° 0.2 mm 6 mps 726 mmHg 88%
    06:00 -1°C° 0.2 mm 6 mps 726 mmHg 88%
    07:00 -1°C° 0.1 mm 6 mps 726 mmHg 87%
    08:00 -1°C° 0.1 mm 6 mps 726 mmHg 85%
    09:00 -1°C° 0.1 mm 6 mps 726 mmHg 83%
    10:00 +1°C° 0.1 mm 6 mps 726 mmHg 83%
    11:00 +1°C° 0.1 mm 5 mps 726 mmHg 82%
    12:00 +1°C° 0.1 mm 5 mps 726 mmHg 81%
    13:00 +1°C° 0.2 mm 5 mps 725 mmHg 82%
    14:00 +1°C° 0.2 mm 5 mps 725 mmHg 82%
    15:00 +1°C° 0.2 mm 4 mps 725 mmHg 82%
    16:00 +1°C° 0.2 mm 4 mps 725 mmHg 84%
    17:00 +1°C° 0.2 mm 3 mps 726 mmHg 86%
    18:00 +1°C° 0.2 mm 3 mps 726 mmHg 88%
    19:00 +2°C° 0.1 mm 2 mps 726 mmHg 89%
    20:00 +1°C° 0.1 mm 2 mps 726 mmHg 90%
    21:00 +1°C° 0.1 mm 2 mps 726 mmHg 90%
    22:00 +1°C° 0.1 mm 2 mps 726 mmHg 91%
    23:00 -1°C° 0.1 mm 2 mps 726 mmHg 92%
    Show more